INMARSAT 5-F3

Last updated on Fri Dec 19 2025 00:02:51 GMT+0000 (Coordinated Universal Time)

1 40882U 15042A 25352.58957483 .00000075 00000+0 00000+0 0 9990 2 40882 0.0185 6.9744 0001201 114.0373 358.2725 1.00270699 37760
UTC large
Height (km)
Speed (km/s)
/
Latitude / Longitude
Inclination (degrees)
Orbital Period (minutes)
Azimuth
Elevation
Range (km)
Doppler Factor

Next 0 passes for location: London (51.5072 / 0.1276)

Sorry there are no passes over London.